Simultaneous Nadir Overpasses (SNOs) Predictions

Prediction of SNOs between GOES-17 and TERRA Satellite Orbit:

Table of predicted SNOs for the next 14.0 days since TLE Epoch: 6/26/2021
Index Date Time (GOES-17) GOES-17 Lat,Lon TERRA Lat,Lon Distance(km) Time Diff (sec)
1 06/27/2021 07:28:11 -0.02,-137.19 0.50,-134.87 264.92 80
2 06/27/2021 19:46:46 0.02,-137.20 0.59,-140.02 321.17 80
3 06/29/2021 19:37:12 0.01,-137.19 0.01,-137.06 14.53 80
4 07/01/2021 19:24:59 0.01,-137.18 -0.64,-134.11 349.74 80
5 07/02/2021 07:43:43 -0.01,-137.17 -0.44,-139.30 241.51 80
6 07/04/2021 07:31:29 -0.01,-137.16 0.15,-136.34 93.43 80
7 07/04/2021 19:52:44 0.01,-137.16 0.94,-141.49 493.11 80
8 07/06/2021 07:19:15 -0.02,-137.14 0.75,-133.37 427.66 80
9 07/06/2021 19:40:31 0.02,-137.14 0.29,-138.54 159.10 80
10 07/08/2021 19:30:57 0.01,-137.11 -0.32,-135.58 173.98 80
11 07/09/2021 07:52:20 -0.01,-137.10 -0.76,-140.78 417.64 80
